User: anonymous   Login
Location: Borgo
(42.3939°N, 9.2791°E)
Time: 11:15:15
(UTC+00:00)
Language:

Cosmos 1689 Rocket - Orbit

View from above orbital plane
View from above orbital plane
View from above satellite
View from above satellite

Ground track
Ground track

The orbit data is extracted from the following two-line orbital elements,

1 16111U 85090B   21100.87169851  .00011536  00000-0  93209-4 0  9994
2 16111  97.4813 299.1046 0008307 233.0292 127.0211 15.70978572961601
Epoch (UTC): 10 April 2021 20:55:14
Eccentricity: 0.0008307
inclination: 97.4813°
perigee height: 350 km
apogee height: 362 km
right ascension of ascending node: 299.1046°
argument of perigee: 233.0292°
revolutions per day: 15.70978572
mean anomaly at epoch: 127.0211°
orbit number at epoch: 96160

The dashed part of the orbit path shows where the satellite is in the earth's shadow,  

DLR